Regional Weather Roundup
Issued by NWS

Home | Current Version | Previous Version | Graphics & Text | Print | Product List | Glossary On
Versions: 1 2 3 4 5 6 7 8 9 10 11 12 13 14 15 16 17 18 19 20 21 22 23 24 25 26 27 28 29 30 31 32 33 34 35 36 37 38 39 40 41 42 43 44 45 46 47 48 49 50
421
ASUS43 KLMK 251502
RWRKY
KENTUCKY REGIONAL WEATHER ROUNDUP
NATIONAL WEATHER SERVICE LOUISVILLE KY
1000 AM EST SAT FEB 25 2017

NOTE "FAIR" INDICATES FEW OR NO CLOUDS BELOW 12,000 FEET
WITH NO SIGNIFICANT WEATHER AND/OR OBSTRUCTIONS TO VISIBILITY.

KYZ001>023-026-027-061>063-070>075-251600-
WESTERN AND SOUTH CENTRAL KENTUCKY

CITY           SKY/WX    TMP DP  RH WIND       PRES   REMARKS
PADUCAH        CLOUDY    35  19  52 NW8       30.06R WCI  29
HENDERSON      CLOUDY    34  18  51 W20G26    30.02R WCI  22
OWENSBORO      CLOUDY    33  21  61 NW20G28   30.01R WCI  21
HOPKINSVILLE   CLOUDY    36  21  54 W14       30.02R WCI  27
BOWLING GREEN  MOSUNNY   40  22  48 NW14G21   29.98R WCI  32
GLASGOW        NOT AVBL
$$

KYZ024-025-028>034-038-045-046-053-251600-
NORTH CENTRAL KENTUCKY

CITY           SKY/WX    TMP DP  RH WIND       PRES   REMARKS
LOUISVILLE/SDF FLURRIES  35  20  54 W20       29.92R WCI  24
LOUISVILLE/LOU CLOUDY    36  21  54 W18       29.92R WCI  26
FORT KNOX      CLOUDY    32  21  62 W14G23    29.92R WCI  22
$$

KYZ035>037-039>044-047>052-055>060-089>105-251600-
NORTHEAST KENTUCKY

CITY           SKY/WX    TMP DP  RH WIND       PRES   REMARKS
LEXINGTON      CLOUDY    37  24  59 W24G33    29.86R WCI  26
COVINGTON      FLURRIES  34  25  69 W13G22    29.80R WCI  25
FRANKFORT      PTSUNNY   36  21  54 W13G26    29.86R WCI  27
$$

KYZ054-064>069-076>088-106>120-251600-
SOUTHEAST KENTUCKY

CITY           SKY/WX    TMP DP  RH WIND       PRES   REMARKS
JACKSON        CLOUDY    43  35  73 SW10G20   29.79R
LONDON         CLOUDY    43  32  65 W16       29.84R
SOMERSET       CLOUDY    41  30  65 W14       29.89R
MIDDLESBORO    PTSUNNY   49  40  70 W12G22    29.82R
MONTICELLO     CLOUDY    42  32  67 W18       29.90R
$$





USA.gov is the U.S. government's official web portal to all federal, state and local government web resources and services.